MAL8076 CYVR-CYYJ

Flight info

Callsign MAL8076
Flight time 0h 18m
Altitude 7000
Route CYVR/26L AMEBO APASS8
Aircraft C208/L-SDFGR/C

Departure

Time 2026-05-05 01:35
Airport Vancouver International Airport (CYVR)

Arrival

Time 2026-05-05 01:53
Airport Victoria International Airport (CYYJ)
Time Latitude Longitude Altitude Speed Heading
2026-05-05 01:17 49.18692 -123.15485 18 ft 0 kts 248°
2026-05-05 01:31 49.18692 -123.15488 17 ft 2 kts 247°
2026-05-05 01:31 49.18669 -123.15551 18 ft 7 kts 236°
2026-05-05 01:32 49.18653 -123.15579 18 ft 2 kts 226°
2026-05-05 01:32 49.18644 -123.15594 18 ft 0 kts 227°
2026-05-05 01:33 49.18643 -123.15595 18 ft 2 kts 227°
2026-05-05 01:33 49.18614 -123.15658 18 ft 7 kts 257°
2026-05-05 01:33 49.18608 -123.15706 18 ft 3 kts 237°
2026-05-05 01:33 49.18567 -123.15745 18 ft 10 kts 194°
2026-05-05 01:34 49.18483 -123.15765 19 ft 11 kts 189°
2026-05-05 01:34 49.18444 -123.15826 20 ft 9 kts 261°
2026-05-05 01:34 49.18473 -123.16066 19 ft 46 kts 280°
2026-05-05 01:34 49.18562 -123.16791 54 ft 85 kts 279°
2026-05-05 01:35 49.18669 -123.17594 190 ft 98 kts 275°
2026-05-05 01:35 49.18778 -123.18642 455 ft 101 kts 263°
2026-05-05 01:35 49.18432 -123.19482 741 ft 100 kts 218°
2026-05-05 01:35 49.17837 -123.20070 934 ft 109 kts 210°
2026-05-05 01:36 49.17174 -123.20593 1293 ft 102 kts 204°
2026-05-05 01:36 49.16497 -123.20928 1606 ft 103 kts 199°
2026-05-05 01:36 49.15821 -123.21174 1844 ft 105 kts 195°
2026-05-05 01:36 49.15058 -123.21378 1980 ft 119 kts 192°
2026-05-05 01:37 49.14215 -123.21580 2163 ft 128 kts 191°
2026-05-05 01:37 49.13329 -123.21790 2346 ft 132 kts 194°
2026-05-05 01:37 49.12426 -123.22092 2539 ft 134 kts 195°
2026-05-05 01:37 49.11495 -123.22375 2745 ft 138 kts 194°
2026-05-05 01:38 49.10529 -123.22648 2941 ft 142 kts 194°
2026-05-05 01:38 49.09574 -123.22917 3183 ft 138 kts 194°
2026-05-05 01:38 49.08631 -123.23180 3414 ft 136 kts 194°
2026-05-05 01:38 49.07704 -123.23434 3653 ft 135 kts 195°
2026-05-05 01:39 49.06782 -123.23689 3887 ft 134 kts 195°
2026-05-05 01:39 49.05863 -123.23942 4134 ft 134 kts 195°
2026-05-05 01:39 49.04953 -123.24193 4378 ft 133 kts 195°
2026-05-05 01:39 49.04046 -123.24443 4623 ft 132 kts 195°
2026-05-05 01:40 49.03144 -123.24692 4859 ft 131 kts 195°
2026-05-05 01:40 49.02269 -123.24934 5095 ft 130 kts 194°
2026-05-05 01:40 49.01370 -123.25182 5296 ft 132 kts 194°
2026-05-05 01:40 49.00453 -123.25437 5496 ft 135 kts 194°
2026-05-05 01:41 48.99536 -123.25691 5691 ft 137 kts 193°
2026-05-05 01:41 48.98595 -123.25951 5894 ft 138 kts 193°
2026-05-05 01:41 48.97637 -123.26215 6097 ft 140 kts 193°
2026-05-05 01:41 48.96683 -123.26475 6291 ft 139 kts 193°
2026-05-05 01:42 48.95742 -123.26732 6475 ft 137 kts 192°
2026-05-05 01:42 48.94804 -123.26989 6660 ft 136 kts 192°
2026-05-05 01:42 48.93871 -123.27245 6847 ft 136 kts 192°
2026-05-05 01:42 48.92939 -123.27502 6990 ft 139 kts 192°
2026-05-05 01:43 48.91952 -123.27779 7010 ft 151 kts 192°
2026-05-05 01:43 48.90887 -123.28076 7012 ft 159 kts 192°
2026-05-05 01:43 48.89784 -123.28380 7004 ft 160 kts 191°
2026-05-05 01:43 48.88738 -123.28653 6989 ft 144 kts 191°
2026-05-05 01:44 48.87793 -123.28913 6864 ft 138 kts 194°
2026-05-05 01:44 48.86820 -123.29507 6138 ft 162 kts 214°
2026-05-05 01:44 48.85888 -123.30470 5422 ft 164 kts 219°
2026-05-05 01:44 48.84979 -123.31526 4848 ft 157 kts 221°
2026-05-05 01:45 48.84168 -123.32505 4525 ft 142 kts 224°
2026-05-05 01:45 48.83422 -123.33409 4236 ft 133 kts 220°
2026-05-05 01:45 48.82670 -123.34221 3840 ft 134 kts 218°
2026-05-05 01:45 48.81907 -123.34933 3616 ft 123 kts 214°
2026-05-05 01:46 48.81195 -123.35580 3434 ft 113 kts 217°
2026-05-05 01:46 48.80561 -123.36181 3302 ft 104 kts 216°
2026-05-05 01:46 48.79960 -123.36743 3159 ft 99 kts 217°
2026-05-05 01:46 48.79384 -123.37281 3011 ft 96 kts 216°
2026-05-05 01:47 48.78831 -123.37803 2868 ft 94 kts 217°
2026-05-05 01:47 48.78291 -123.38320 2725 ft 91 kts 216°
2026-05-05 01:47 48.77786 -123.38807 2601 ft 85 kts 217°
2026-05-05 01:47 48.77243 -123.39329 2363 ft 98 kts 217°
2026-05-05 01:48 48.76649 -123.39893 2331 ft 106 kts 215°
2026-05-05 01:48 48.76014 -123.40511 2294 ft 111 kts 216°
2026-05-05 01:48 48.75593 -123.40929 2330 ft 107 kts 216°
2026-05-05 01:48 48.74952 -123.41576 2262 ft 114 kts 216°
2026-05-05 01:49 48.74283 -123.42243 2177 ft 116 kts 215°
2026-05-05 01:49 48.73590 -123.42891 2077 ft 119 kts 212°
2026-05-05 01:49 48.72865 -123.43520 1952 ft 119 kts 212°
2026-05-05 01:49 48.72154 -123.44112 1713 ft 117 kts 208°
2026-05-05 01:50 48.71451 -123.44634 1521 ft 108 kts 207°
2026-05-05 01:50 48.70776 -123.45131 1471 ft 108 kts 208°
2026-05-05 01:50 48.70097 -123.45645 1438 ft 109 kts 206°
2026-05-05 01:50 48.69416 -123.46111 1295 ft 106 kts 204°
2026-05-05 01:51 48.68759 -123.46521 1143 ft 101 kts 202°
2026-05-05 01:51 48.68097 -123.46832 951 ft 98 kts 188°
2026-05-05 01:51 48.67453 -123.46887 840 ft 90 kts 180°
2026-05-05 01:51 48.66853 -123.46865 754 ft 85 kts 175°
2026-05-05 01:52 48.66272 -123.46696 606 ft 80 kts 154°
2026-05-05 01:52 48.65854 -123.46222 486 ft 73 kts 135°
2026-05-05 01:52 48.65585 -123.45637 375 ft 62 kts 114°
2026-05-05 01:52 48.65417 -123.45025 300 ft 70 kts 112°
2026-05-05 01:53 48.65259 -123.44312 174 ft 70 kts 107°
2026-05-05 01:53 48.65132 -123.43653 55 ft 59 kts 105°
2026-05-05 01:53 48.65038 -123.43175 58 ft 33 kts 106°
2026-05-05 01:53 48.64991 -123.42931 55 ft 21 kts 107°
2026-05-05 01:54 48.64963 -123.42783 53 ft 9 kts 106°
2026-05-05 01:54 48.64952 -123.42726 56 ft 5 kts 106°
2026-05-05 01:54 48.64927 -123.42598 52 ft 20 kts 105°
2026-05-05 01:54 48.64887 -123.42384 55 ft 19 kts 106°
2026-05-05 01:55 48.64851 -123.42200 54 ft 20 kts 107°
2026-05-05 01:55 48.64825 -123.42067 55 ft 7 kts 113°
2026-05-05 01:55 48.64797 -123.42023 52 ft 8 kts 165°
2026-05-05 01:55 48.64756 -123.42069 54 ft 6 kts 229°
2026-05-05 01:56 48.64730 -123.42121 56 ft 10 kts 234°
2026-05-05 01:56 48.64657 -123.42228 56 ft 13 kts 218°
2026-05-05 01:56 48.64595 -123.42265 52 ft 11 kts 195°
2026-05-05 01:56 48.64546 -123.42246 54 ft 5 kts 106°
2026-05-05 01:57 48.64525 -123.42209 56 ft 7 kts 181°
2026-05-05 01:57 48.64515 -123.42222 56 ft 0 kts 285°